Regional Weather Roundup
Issued by NWS Northern Indiana

Home | Current Version | Previous Version | Graphics & Text | Print | Product List | Glossary On
Versions: 1 2 3 4 5 6 7 8 9 10 11 12 13 14 15 16 17 18 19 20 21 22 23 24 25 26 27 28 29 30 31 32 33 34 35 36 37 38 39 40 41 42 43 44 45 46 47 48 49 50
000
ASUS43 KIWX 310000
RWRIWX

KIWX WEATHER ROUNDUP
NATIONAL WEATHER SERVICE NORTHERN INDIANA
800 PM EDT SUN AUG 30 2015

NOTE: "FAIR" INDICATES FEW OR NO CLOUDS BELOW 12,000 FEET WITH NO
SIGNIFICANT WEATHER AND/OR OBSTRUCTIONS TO VISIBILITY.

* THESE STATIONS ARE NOT UNDER NWS QUALITY CONTROL. THEY ALSO MAY NOT
  REPORT WEATHER SUCH AS PRECIPITATION OR FOG.

INZ001>027-310100-
NORTHERN INDIANA

CITY           SKY/WX    TMP DP  RH WIND       PRES   REMARKS
GARY*          PTCLDY    72  66  83 VRB5      30.02F
KNOX*          CLEAR     73  68  83 N3        30.01S
SOUTH BEND     CLEAR     72  66  81 N3        30.03F
6HR MIN TEMP:  72; 6HR MAX TEMP:  76;

GOSHEN         CLEAR     74  69  85 W3        30.02F
6HR MIN TEMP:  74; 6HR MAX TEMP:  81;

MONTICELLO*    MOCLDY    75  73  93 N5        30.01S
6HR MIN TEMP:  75; 6HR MAX TEMP:  83;

WARSAW*        CLEAR     73  68  83 CALM      30.03S
ANGOLA*        CLEAR     75  70  83 CALM      30.03S
FORT WAYNE     PTCLDY    78  69  73 NW5       30.03R
6HR MIN TEMP:  78; 6HR MAX TEMP:  85;


$$
INZ028>050-310100-
CENTRAL INDIANA

CITY           SKY/WX    TMP DP  RH WIND       PRES   REMARKS
LAFAYETTE      PTCLDY    80  68  66 CALM      30.01R
6HR MIN TEMP:  80; 6HR MAX TEMP:  85;

KOKOMO*        PTCLDY    81  66  61 W6        30.03S
6HR MIN TEMP:  81; 6HR MAX TEMP:  86;

MUNCIE*        PTCLDY    77  66  68 W6        30.03S
6HR MIN TEMP:  77; 6HR MAX TEMP:  84;

INDIANAPOLIS   MOCLDY    79  63  57 SW8       30.02S
6HR MIN TEMP:  79; 6HR MAX TEMP:  87;


$$
MIZ043>046-050>051-056>058-064>065-071>073-077>080-310100-
SOUTHWEST LOWER MICHIGAN

CITY           SKY/WX    TMP DP  RH WIND       PRES   REMARKS
BATTLE CREEK   CLEAR     74  67  78 W3        30.03F
6HR MIN TEMP:  74; 6HR MAX TEMP:  79;

BENTON HARBOR  CLEAR     69  65  86 CALM      30.02F
6HR MIN TEMP:  69; 6HR MAX TEMP:  75;

COLDWATER*     CLEAR     74  68  80 W3        30.03S
6HR MIN TEMP:  74; 6HR MAX TEMP:  80;

HILLSDALE*     CLEAR     75  71  87 NW5       30.04S FOG
HOLLAND        CLEAR     69  65  86 W3        30.03S
6HR MIN TEMP:  69; 6HR MAX TEMP:  77;

GRAND RAPIDS   PTCLDY    72  65  78 SW6       30.02S
6HR MIN TEMP:  72; 6HR MAX TEMP:  78;

KALAMAZOO      CLEAR     72  65  78 W7        30.03S
6HR MIN TEMP:  72; 6HR MAX TEMP:  79;

STURGIS*       CLEAR     73  70  88 CALM      30.03S FOG
THREE RIVERS*  FAIR      73  67  83 CALM      30.03S
6HR MIN TEMP:  73; 6HR MAX TEMP:  78;


$$
OHZ001>008-015>018-024>025-310100-
NORTHWEST OHIO

CITY           SKY/WX    TMP DP  RH WIND       PRES   REMARKS
DEFIANCE       CLEAR     81  67  62 CALM      30.02R
6HR MIN TEMP:  81; 6HR MAX TEMP:  86;

FINDLAY        PTCLDY    76  71  85 E5        30.02S
6HR MIN TEMP:  74; 6HR MAX TEMP:  87; 6HR PCP:  0.13;

TOLEDO EXPRESS CLEAR     75  69  81 CALM      30.01R
6HR MIN TEMP:  75; 6HR MAX TEMP:  85;

TOLEDO METCALF CLEAR     81  66  60 CALM      30.02R
6HR MIN TEMP:  81; 6HR MAX TEMP:  86;

LIMA           CLEAR     77  68  73 S7        30.03S
6HR MIN TEMP:  74; 6HR MAX TEMP:  84; 6HR PCP:  0.02;


$$
AND FOR LAKE MICHIGAN COASTAL AND OPEN LAKE BUOY OBSERVATIONS

STATION/POSITION TEMP    WIND        PRES    VSBY  WAVE
                 AIR SEA DIR/SP/G                  HT/PER
                 (F)     (DEG/KT/KT) (MB)    (MI)  (FT/S)
MICHIGAN CITY     69      40/  7/  7   N/A
BURNS HARBOR      71      70/  8/ 10 1017.3S
SAINT JOSEPH      71     330/  3/  3 1017.6F
SOUTH LAKE BUOY   67 68   60/  2/  2 1016.2F         1
4 MI NW BRIDGMAN  69 71   80/  4/  4   N/A           1/ 3
MICHIGAN CITY     69 71   80/  6/  8   N/A           1/ 3

$$
&&


USA.gov is the U.S. government's official web portal to all federal, state and local government web resources and services.